Weather History for VDPP - September, 2013

Change the Weather History Date:

Thursday, September 19, 2013

  Actual Average Record
Temperature  
Mean Temperature 82 °F -  
Max Temperature 89 °F 85 °F 95 °F (1999)
Min Temperature 75 °F 76 °F 75 °F (2006)
Cooling Degree Days 17    
Growing Degree Days 32 (Base 50)    
Moisture  
Dew Point 71 °F    
Average Humidity 66    
Maximum Humidity 89    
Minimum Humidity 52    
Precipitation  
Precipitation 0.00 in - - ()
Sea Level Pressure  
Sea Level Pressure 29.61 in    
Wind  
Wind Speed 13 mph ()    
Max Wind Speed 23 mph    
Max Gust Speed 30 mph    
Visibility 6.1 miles    
Events Thunderstorm    
Averages and records for this station are not official NWS values.
T = Trace of Precipitation, MM = Missing Value Source: Averaged Metar Reports

Daily Weather History Graph

Daily Weather History Graph

Search for Another Location

Airport or City:

Trip Planner

Search our weather history database for the weather conditions in past years. The results will help you decide how hot, cold, wet, or windy it might be!

Date:

Astronomy

Sep. 19, 2013 Rise Set
Actual Time 5:49 AM ICT 5:58 PM ICT
Civil Twilight 5:28 AM ICT 6:19 PM ICT
Nautical Twilight 5:04 AM ICT 6:44 PM ICT
Astronomical Twilight 4:39 AM ICT 7:09 PM ICT
Moon 5:46 PM ICT (9/19) 5:20 AM ICT (9/19)
Length of Visible Light 12h 51m
Length of Day
12h 08m
Full, 100% of the Moon is Illuminated
Sep 19
Full
Sep 19
Full
Sep 27
Last Quarter
Oct 5
New
Oct 12
First Quarter

Hourly Weather History & Observations

Time (ICT) Temp. Heat Index Dew Point Humidity Pressure Visibility Wind Dir Wind Speed Gust Speed Precip Events Conditions
12:00 AM 78.8 °F - 75.2 °F 89% 29.65 in 6.2 mi West 10.4 mph - N/A   Scattered Clouds
1:00 AM 78.8 °F - 75.2 °F 89% 29.59 in 6.2 mi WSW 10.4 mph - N/A   Scattered Clouds
7:00 AM 78 °F - 72 °F 78% 29.67 in 6 mi West 6.7 mph - -   Overcast
7:00 AM 80.6 °F 84.6 °F 71.6 °F 74% 29.62 in 6.2 mi WSW 12.7 mph - N/A   Scattered Clouds
7:30 AM 80.6 °F 84.6 °F 71.6 °F 74% 29.62 in 6.2 mi WSW 13.8 mph - N/A   Scattered Clouds
8:00 AM 82.4 °F 86.3 °F 69.8 °F 66% 29.62 in 6.2 mi WSW 15.0 mph - N/A   Mostly Cloudy
8:30 AM 84.2 °F 88.4 °F 69.8 °F 62% 29.65 in 6.2 mi WSW 15.0 mph - N/A   Mostly Cloudy
9:00 AM 84.2 °F 88.4 °F 69.8 °F 62% 29.65 in 6.2 mi WSW 17.3 mph - N/A   Mostly Cloudy
9:30 AM 84.2 °F 88.4 °F 69.8 °F 62% 29.65 in 6.2 mi West 13.8 mph - N/A   Mostly Cloudy
10:00 AM 86.0 °F 89.4 °F 68.0 °F 55% 29.62 in 6.2 mi West 19.6 mph - N/A   Mostly Cloudy
10:30 AM 86.0 °F 90.4 °F 69.8 °F 58% 29.62 in 6.2 mi West 19.6 mph - N/A   Mostly Cloudy
11:00 AM 86.0 °F 90.4 °F 69.8 °F 58% 29.62 in 6.2 mi West 16.1 mph - N/A   Mostly Cloudy
11:30 AM 86.0 °F 91.8 °F 71.6 °F 62% 29.62 in 6.2 mi WSW 15.0 mph - N/A   Mostly Cloudy
12:00 PM 87.8 °F 93.8 °F 71.6 °F 58% 29.59 in 6.2 mi WSW 19.6 mph - N/A   Mostly Cloudy
12:30 PM 89.6 °F 94.7 °F 69.8 °F 52% 29.59 in 6.2 mi West 20.7 mph - N/A   Scattered Clouds
1:00 PM 87.8 °F 93.8 °F 71.6 °F 58% 29.59 in 6.2 mi WSW 19.6 mph - N/A   Scattered Clouds
1:30 PM 87.8 °F 92.6 °F 69.8 °F 55% 29.56 in 6.2 mi WSW 18.4 mph - N/A   Scattered Clouds
2:00 PM 87.8 °F 92.6 °F 69.8 °F 55% 29.56 in 5.6 mi West 16.1 mph 29.9 mph N/A Thunderstorm Thunderstorm
2:30 PM 86.0 °F 90.4 °F 69.8 °F 58% 29.56 in 5.6 mi WSW 23.0 mph - N/A Thunderstorm Thunderstorm
3:00 PM 86.0 °F 91.8 °F 71.6 °F 62% 29.56 in 5.6 mi WSW 20.7 mph - N/A Thunderstorm Thunderstorm
3:30 PM 84.2 °F 89.6 °F 71.6 °F 66% 29.56 in 6.2 mi WSW 21.9 mph - N/A   Mostly Cloudy
4:00 PM 84.2 °F 89.6 °F 71.6 °F 66% 29.56 in 6.2 mi SW 15.0 mph 26.5 mph N/A   Mostly Cloudy
4:30 PM 84.2 °F 89.6 °F 71.6 °F 66% 29.56 in 6.2 mi WSW 17.3 mph - N/A   Mostly Cloudy
5:00 PM 82.4 °F 86.3 °F 69.8 °F 66% 29.56 in 6.2 mi WSW 17.3 mph - N/A   Mostly Cloudy
5:30 PM 80.6 °F 84.6 °F 71.6 °F 74% 29.56 in 6.2 mi WSW 16.1 mph - N/A   Mostly Cloudy
6:00 PM 80.6 °F 84.6 °F 71.6 °F 74% 29.56 in 6.2 mi WSW 12.7 mph - N/A   Mostly Cloudy
6:30 PM 80.6 °F 84.6 °F 71.6 °F 74% 29.59 in 6.2 mi WSW 18.4 mph - N/A   Mostly Cloudy
7:00 PM 82.4 °F 86.3 °F 69.8 °F 66% 29.59 in 6.2 mi WSW 16.1 mph - N/A   Mostly Cloudy
7:30 PM 82.4 °F 86.3 °F 69.8 °F 66% 29.62 in 6.2 mi WSW 16.1 mph - N/A   Mostly Cloudy
8:00 PM 80.6 °F 84.6 °F 71.6 °F 74% 29.62 in 6.2 mi SW 9.2 mph - N/A   Mostly Cloudy
8:30 PM 82.4 °F 87.2 °F 71.6 °F 70% 29.62 in 6.2 mi WSW 12.7 mph - N/A   Mostly Cloudy
9:00 PM 82.4 °F 86.3 °F 69.8 °F 66% 29.65 in 6.2 mi WSW 15.0 mph - N/A   Mostly Cloudy
9:30 PM 82.4 °F 86.3 °F 69.8 °F 66% 29.65 in 6.2 mi SW 13.8 mph - N/A   Mostly Cloudy
10:00 PM 82.4 °F 86.3 °F 69.8 °F 66% 29.62 in 6.2 mi WSW 11.5 mph - N/A   Mostly Cloudy
10:30 PM 82.4 °F 85.4 °F 68.0 °F 62% 29.62 in 6.2 mi West 12.7 mph - N/A   Mostly Cloudy
11:00 PM 82.4 °F 85.4 °F 68.0 °F 62% 29.62 in 6.2 mi WSW 11.5 mph - N/A   Mostly Cloudy
11:30 PM 80.6 °F 83.2 °F 68.0 °F 65% 29.65 in 6.2 mi SW 10.4 mph - N/A   Mostly Cloudy